Wetbulb
70.01 72.60 75.53 71.93 63.07 63.26 55.64 57.45 61.44 60.09 60.57 64.83 66.05 64.13 63.60 64.13 61.42 57.42 68.54 70.62 72.67 72.26 73.90 75.03 77.18 75.85 76.00 75.94 76.28 76.26 76.59 76.49 76.44 76.19 76.62 76.47 76.53 76.72 76.80 76.83 76.65 76.00 75.60 75.85 75.90 76.51 76.13 76.67 76.29
71.39 73.55 72.27 68.56 58.82 54.54 54.50 60.73 59.19 61.64 63.51 66.74 64.18 64.98 63.90 61.99 67.21 67.75 69.09 72.80 73.05 73.15 73.73 74.35 76.81 76.83 76.11 76.11 76.11 76.33 76.63 76.87 76.78 76.59 76.55 76.33 76.39 76.54 76.58 76.59 76.27 76.16 76.22 76.08 76.05 76.22 75.86 75.33 75.51
73.41 72.35 67.30 62.72 55.70 53.01 55.12 59.92 59.95 64.20 65.17 65.61 64.22 66.67 64.90 63.86 67.83 69.23 72.04 70.46 70.18 73.11 74.28 75.62 76.78 77.44 76.92 76.54 76.53 76.83 76.75 76.64 76.66 76.57 76.02 75.07 75.36 75.91 76.32 76.59 76.66 76.69 76.21 75.82 75.85 75.68 75.17 74.93 75.59
72.07 69.19 66.90 55.82 52.57 57.66 59.02 61.48 64.16 63.93 66.19 66.81 65.43 62.72 67.69 69.54 68.86 71.83 72.62 72.00 70.30 72.85 74.34 76.70 77.71 77.17 76.96 77.02 77.02 77.02 76.93 76.98 76.68 76.84 75.83 76.78 76.75 76.49 76.01 75.88 76.04 76.57 76.18 75.79 75.74 75.82 75.86 75.53 75.43
71.97 68.84 58.32 53.69 53.58 58.91 63.06 64.71 65.64 63.98 64.13 64.86 65.59 62.54 64.32 69.04 71.41 72.48 72.88 73.21 71.63 72.95 74.47 75.90 77.77 77.59 77.21 76.89 77.20 77.23 76.73 76.95 77.03 77.06 76.66 76.63 77.00 76.76 75.93 76.63 77.40 77.49 76.85 76.60 77.25 76.97 77.02 76.60 76.05
65.37 66.40 56.43 53.38 57.54 62.04 64.22 65.43 65.17 64.06 65.19 65.21 64.53 63.82 64.53 70.37 71.46 72.46 72.53 70.78 72.33 72.78 73.87 75.05 77.30 77.56 77.40 77.02 76.83 76.90 77.05 76.91 77.77 77.91 77.84 77.79 77.93 77.19 76.93 76.74 77.10 77.38 77.44 77.09 75.99 76.45 76.66 76.32 75.60
66.11 61.45 56.62 58.11 59.41 61.11 63.64 67.18 64.07 63.45 63.83 64.36 66.67 61.86 65.86 68.00 71.57 72.61 72.32 71.84 71.04 72.93 73.78 74.88 75.65 76.67 77.55 77.97 76.61 77.02 77.35 76.97 77.59 77.37 77.54 77.90 77.88 77.53 77.26 77.62 77.27 76.94 77.13 77.23 77.22 76.55 75.59 75.53 75.25
68.02 61.64 58.20 58.39 57.16 59.50 65.57 65.48 65.32 64.80 63.90 68.76 68.21 61.83 62.42 68.14 71.53 72.77 72.31 69.12 67.21 72.76 73.72 74.92 75.11 75.90 75.76 75.55 77.63 76.90 76.97 76.99 77.10 76.84 77.23 77.90 77.24 76.96 76.66 77.75 77.79 76.88 76.73 76.37 77.01 77.08 76.16 75.18 74.79
68.06 59.26 56.50 57.96 58.09 61.70 65.86 64.18 67.89 66.92 65.61 66.80 67.79 66.76 67.86 69.89 70.38 70.40 68.13 71.55 71.77 72.89 74.11 73.74 73.23 74.92 75.59 75.92 76.35 77.06 77.04 77.10 77.48 76.79 77.29 77.15 75.17 75.66 75.35 77.47 77.94 76.59 76.54 76.31 76.52 77.28 76.27 76.16 75.32
63.95 58.82 59.25 63.53 62.16 62.04 65.09 63.36 64.76 64.44 63.73 64.48 65.82 68.27 68.84 69.34 69.07 69.15 68.62 68.87 70.27 71.49 71.99 74.25 73.86 74.15 74.87 73.43 75.99 75.90 75.23 74.98 75.85 75.74 75.98 76.45 76.48 76.09 74.53 76.64 77.74 76.47 77.30 76.88 77.40 77.45 77.20 76.21 74.05
64.36 60.64 64.15 63.74 64.37 64.21 64.33 64.45 66.59 63.24 61.52 64.52 63.77 66.31 67.70 68.09 68.28 68.39 68.53 68.69 70.25 72.49 71.04 65.04 71.25 71.78 72.31 74.67 75.51 75.90 75.64 75.10 77.30 76.29 77.07 76.54 76.35 76.14 75.01 75.37 74.69 75.32 77.13 75.46 76.68 76.93 76.29 75.99 75.35
62.66 65.79 65.87 65.16 64.67 62.52 63.82 65.00 64.47 64.95 63.78 67.20 67.65 67.79 67.96 67.27 67.07 68.00 68.66 69.26 68.87 71.07 70.52 68.08 71.01 67.83 65.47 73.89 73.07 74.98 73.89 75.32 75.68 71.20 70.80 71.74 73.93 71.96 72.76 72.25 72.87 74.55 76.21 76.27 75.30 75.46 76.53 75.44 73.63
61.51 65.29 66.04 66.28 64.20 63.88 64.62 63.69 64.09 64.54 66.59 68.19 68.75 68.10 67.37 66.82 67.78 68.77 69.48 70.07 69.86 69.24 71.77 74.51 72.89 72.97 72.52 75.43 72.29 74.85 70.74 70.92 73.93 70.39 68.14 68.92 71.46 71.23 71.75 70.13 70.42 70.38 71.52 75.83 75.96 75.82 75.90 74.16 74.19
62.68 63.97 64.96 64.65 64.38 63.79 62.27 62.82 64.80 64.54 66.94 66.52 67.12 66.75 67.29 67.09 67.60 68.51 69.80 69.54 69.63 70.66 70.72 72.85 74.37 76.34 77.71 78.06 78.18 76.89 71.16 70.89 75.08 71.52 67.94 70.33 74.33 69.39 68.56 70.27 69.07 68.04 72.21 75.85 76.30 75.39 75.80 74.51 74.39
65.40 61.76 64.24 65.04 64.57 62.72 62.20 58.90 60.69 65.12 66.66 65.00 65.80 66.49 67.03 67.29 68.36 68.50 69.93 70.04 69.84 70.88 71.37 72.60 74.60 74.88 77.49 77.24 78.14 76.72 72.43 73.99 71.71 76.08 78.54 78.48 72.17 67.38 68.06 68.90 70.32 71.33 76.60 77.99 78.04 77.80 76.26 74.85 74.16
60.30 63.48 58.03 62.72 64.00 62.07 61.01 53.95 60.76 64.31 64.19 63.93 64.88 65.96 66.13 65.92 68.28 69.54 69.60 70.12 71.31 70.96 72.51 73.16 72.75 74.52 74.88 77.50 74.46 76.17 74.58 75.03 75.03 76.24 77.06 77.52 77.13 72.32 70.13 68.98 74.22 76.89 78.07 77.10 76.24 76.38 74.97 73.28 73.85
58.79 54.44 56.29 54.93 64.03 60.85 59.07 54.67 59.33 63.55 63.25 63.52 64.90 66.10 66.55 64.85 68.70 69.67 69.50 70.55 70.61 71.28 73.54 73.36 72.91 73.61 74.78 77.18 75.59 77.86 76.18 77.34 78.74 73.07 75.88 78.22 78.27 73.71 71.22 74.62 74.01 74.57 75.99 76.17 76.01 76.36 76.40 75.78 73.97
52.03 55.20 56.13 55.54 61.28 61.01 58.28 57.07 58.71 60.85 61.92 62.71 64.04 64.54 65.30 65.43 67.90 69.82 70.42 70.50 72.03 72.33 73.89 75.38 74.68 74.95 77.20 77.40 78.24 76.08 73.50 71.65 76.50 72.14 72.76 79.50 78.47 74.32 66.55 72.47 67.90 70.71 71.42 76.56 77.99 78.46 77.36 76.96 76.29
58.82 56.37 53.86 59.22 62.16 58.54 56.85 56.59 57.56 59.12 61.13 61.85 63.43 64.89 65.63 66.03 67.96 69.86 70.96 71.24 71.52 72.56 73.03 72.45 74.77 75.97 76.49 76.29 76.13 71.82 75.13 76.97 73.89 73.91 73.78 79.14 78.67 78.09 76.82 69.60 67.16 70.35 69.29 77.75 78.13 76.50 77.46 76.70 75.48
58.75 56.03 53.93 60.13 62.04 60.84 58.80 57.05 58.99 60.19 60.50 62.15 62.93 64.08 65.56 64.55 67.18 68.24 69.56 71.35 71.21 72.60 73.70 73.48 75.04 76.42 75.98 75.59 76.37 76.17 77.83 76.21 75.88 76.54 78.18 79.13 78.53 78.55 75.86 69.68 69.78 69.51 71.96 77.40 78.86 79.01 77.55 74.75 75.81
55.51 55.90 55.25 55.87 59.79 60.67 59.89 56.39 57.98 59.66 61.28 62.69 62.88 64.25 65.65 65.19 66.19 67.46 69.96 69.94 71.98 72.31 72.93 74.38 75.70 76.57 76.71 77.48 75.57 77.55 74.67 73.71 70.20 76.69 76.83 77.57 77.79 77.38 78.15 69.27 67.36 67.97 66.79 66.79 77.06 79.21 78.58 76.21 75.60
51.40 57.73 57.22 56.84 54.71 52.23 58.97 49.79 56.09 57.75 58.32 60.23 61.21 63.11 64.31 64.49 65.93 66.79 68.59 69.61 71.32 71.50 73.96 74.49 75.50 75.92 76.18 77.47 76.96 76.13 75.42 71.06 74.80 74.28 76.43 76.81 78.39 79.13 77.83 74.85 67.30 66.98 66.05 66.45 73.78 78.22 77.85 76.36 72.02
53.10 57.78 56.47 55.97 54.77 53.65 54.90 52.61 56.87 58.35 56.13 59.49 60.87 61.62 64.20 64.38 65.46 66.27 67.48 70.09 72.03 72.61 72.80 74.47 75.15 75.57 75.89 77.83 77.27 76.36 74.94 75.30 77.77 76.84 76.42 80.10 78.78 80.01 77.85 76.66 71.67 67.73 71.42 73.09 64.87 70.93 77.88 76.66 75.62
56.40 54.91 55.12 55.95 54.12 48.18 52.89 53.45 55.53 56.04 58.08 60.05 62.26 62.34 64.14 64.51 65.12 67.40 66.84 68.61 71.60 72.08 72.87 73.99 74.91 74.88 76.67 76.16 76.00 75.63 75.34 74.04 73.66 75.40 73.47 76.21 76.13 77.06 78.99 78.96 79.25 76.59 64.55 63.70 78.34 78.58 78.38 78.78 78.46
53.11 51.06 46.33 46.28 47.07 45.71 54.92 52.72 56.24 60.17 62.94 62.64 62.33 63.06 64.21 65.30 66.62 66.87 67.91 68.27 69.38 71.95 72.57 72.22 74.70 74.73 75.67 75.74 75.67 76.15 75.89 75.20 72.24 72.77 71.53 74.89 75.02 74.67 77.01 79.05 78.74 79.37 78.12 78.45 79.57 78.21 78.41 78.35 77.92
52.29 50.32 46.37 41.71 42.76 43.72 52.19 49.96 54.43 60.41 64.89 65.10 64.13 64.16 64.79 66.11 66.21 67.21 67.37 70.31 68.83 71.80 72.79 73.97 74.64 74.65 74.75 75.37 75.61 76.87 76.95 73.34 72.72 75.00 77.41 76.19 74.07 74.24 77.55 78.08 78.67 78.13 78.22 77.86 78.17 77.66 77.67 78.33 78.11
53.22 50.48 54.65 49.69 50.11 47.08 51.37 54.19 58.64 61.90 63.11 63.73 63.28 64.52 64.62 66.90 67.68 68.38 69.18 68.42 67.23 68.42 72.87 73.99 74.98 74.61 74.71 74.96 76.38 76.21 76.16 76.14 77.05 76.53 79.20 76.23 79.48 74.84 78.00 77.94 77.60 78.84 78.31 79.52 79.65 77.77 77.92 78.44 79.27
54.07 56.68 50.53 51.72 43.14 43.48 49.08 50.03 48.08 58.12 60.59 62.52 62.58 63.20 64.80 66.82 68.23 66.53 67.90 67.86 69.45 69.03 72.59 74.63 75.36 75.15 74.98 75.23 75.04 74.65 76.54 76.79 77.09 77.98 78.66 77.98 79.96 74.86 73.04 78.43 78.09 78.02 78.77 78.86 79.29 77.87 77.25 77.58 77.79
52.39 51.69 51.88 52.57 48.04 45.97 45.72 48.10 57.39 55.84 58.67 61.95 61.50 62.94 64.37 65.27 68.12 69.26 69.07 67.18 67.91 70.50 72.45 74.02 74.83 75.38 75.27 75.34 74.93 75.51 75.43 75.68 77.02 77.13 76.13 78.18 79.26 79.71 79.03 77.75 78.16 77.97 78.64 78.87 79.17 78.13 77.10 76.95 77.90
54.60 52.49 52.16 48.20 45.84 49.26 49.78 49.22 56.89 57.05 59.71 63.11 63.18 63.77 65.56 68.38 66.78 69.62 69.56 68.96 68.34 71.98 72.70 72.57 74.56 74.89 75.07 75.05 76.18 75.73 75.88 75.88 75.45 75.77 76.73 77.13 77.78 79.92 79.73 79.04 79.00 78.15 78.56 78.13 77.79 76.38 75.95 77.00 76.42
MSLP
1008.45 1008.15 1007.29 1006.43 1007.47 1006.60 1004.94 1003.46 1002.41 1002.70 1002.89 1003.60 1004.12 1004.29 1005.27 1006.15 1007.18 1010.66 1012.65 1012.86 1013.08 1013.74 1014.42 1014.54 1014.63 1015.06 1015.17 1015.54 1015.72 1015.82 1015.93 1016.09 1016.15 1016.17 1016.16 1016.30 1016.32 1016.45 1016.59 1016.57 1016.61 1016.67 1016.90 1017.04 1017.23 1017.09 1017.12 1017.15 1017.20
1007.81 1007.19 1007.15 1007.04 1007.32 1006.16 1004.80 1003.61 1003.60 1003.07 1003.33 1004.58 1006.52 1005.38 1005.55 1006.57 1007.96 1010.06 1012.23 1012.79 1013.21 1013.14 1014.17 1014.84 1014.89 1014.97 1015.35 1015.72 1015.91 1016.12 1016.07 1016.28 1016.38 1016.38 1016.46 1016.52 1016.67 1016.71 1016.75 1016.81 1016.97 1017.02 1017.05 1017.25 1017.25 1017.46 1017.26 1017.21 1017.23
1008.21 1007.77 1008.22 1008.61 1008.68 1006.90 1004.59 1004.09 1004.19 1004.10 1004.25 1004.21 1005.67 1005.35 1006.04 1007.08 1008.30 1009.89 1012.21 1013.20 1013.94 1013.45 1014.20 1015.30 1015.21 1015.11 1015.41 1015.77 1016.01 1016.17 1016.36 1016.51 1016.64 1016.61 1016.72 1016.91 1017.04 1017.07 1017.15 1017.11 1017.18 1017.22 1017.30 1017.54 1017.41 1017.39 1017.36 1017.41 1017.45
1007.44 1008.42 1009.37 1009.88 1009.35 1006.87 1004.70 1003.33 1003.42 1004.06 1004.36 1005.09 1005.55 1006.21 1006.72 1007.54 1008.33 1010.13 1011.94 1013.28 1013.83 1013.85 1014.64 1015.44 1015.24 1015.20 1015.41 1015.73 1016.07 1016.23 1016.39 1016.56 1016.60 1016.74 1016.91 1017.16 1017.12 1017.30 1017.34 1017.37 1017.38 1017.40 1017.48 1017.70 1017.64 1017.73 1017.70 1017.72 1017.67
1007.89 1007.99 1009.44 1010.75 1009.71 1006.94 1003.67 1003.46 1004.09 1004.55 1005.58 1005.55 1006.06 1006.94 1007.60 1008.22 1008.66 1010.38 1011.54 1012.56 1012.93 1014.03 1014.96 1015.26 1015.38 1015.30 1015.45 1015.76 1016.00 1016.22 1016.41 1016.59 1016.73 1016.85 1016.98 1017.09 1017.20 1017.31 1017.33 1017.23 1017.18 1017.24 1017.39 1017.50 1017.56 1017.78 1017.80 1017.95 1017.96
1009.01 1009.04 1009.95 1010.05 1007.42 1005.03 1004.13 1004.06 1004.93 1006.00 1005.42 1006.20 1006.59 1007.59 1008.37 1008.60 1008.97 1010.12 1011.39 1012.26 1012.38 1013.52 1014.45 1015.14 1015.32 1015.40 1015.52 1015.72 1015.97 1016.18 1016.31 1016.53 1016.64 1016.74 1016.88 1017.01 1017.09 1017.16 1017.10 1017.12 1017.06 1017.08 1017.32 1017.44 1017.65 1017.78 1018.04 1018.23 1018.07
1007.29 1007.02 1009.74 1009.09 1007.37 1005.80 1004.67 1004.67 1005.64 1006.22 1005.57 1006.16 1006.97 1007.87 1008.62 1008.61 1008.90 1010.10 1011.99 1013.04 1013.36 1013.33 1013.90 1014.97 1015.45 1015.69 1015.80 1015.81 1015.93 1016.09 1016.23 1016.36 1016.52 1016.68 1016.78 1016.91 1016.98 1017.09 1017.22 1017.29 1017.27 1017.40 1017.42 1017.56 1017.74 1017.89 1018.05 1018.15 1018.01
1006.15 1009.26 1009.22 1009.35 1008.59 1006.23 1005.39 1006.00 1007.32 1006.32 1005.92 1006.23 1006.81 1007.94 1008.54 1008.67 1009.04 1010.17 1011.81 1012.76 1012.20 1012.75 1013.61 1014.74 1015.70 1015.94 1016.12 1016.27 1016.18 1016.21 1016.27 1016.26 1016.40 1016.56 1016.68 1016.86 1017.23 1017.37 1017.52 1017.56 1017.57 1017.70 1017.72 1017.75 1017.86 1018.05 1018.20 1017.97 1018.05
1007.29 1009.39 1009.31 1009.07 1009.23 1007.48 1006.24 1006.25 1006.57 1006.76 1005.81 1006.01 1006.47 1007.46 1008.51 1008.77 1009.02 1010.50 1012.02 1012.16 1012.42 1012.86 1013.38 1014.31 1015.42 1016.03 1016.23 1016.49 1016.43 1016.31 1016.17 1016.16 1016.14 1016.38 1016.84 1017.31 1017.24 1017.41 1017.96 1017.82 1018.02 1017.98 1017.88 1017.94 1018.08 1018.11 1018.13 1017.89 1017.85
1006.12 1007.52 1007.68 1007.72 1009.11 1008.65 1007.29 1007.82 1006.54 1006.54 1006.25 1007.23 1007.04 1007.99 1008.58 1008.83 1009.12 1009.94 1010.88 1011.55 1012.70 1013.35 1013.27 1013.77 1014.06 1014.54 1015.83 1016.05 1016.28 1016.26 1016.03 1015.97 1016.10 1016.58 1017.23 1017.50 1017.65 1017.78 1017.65 1017.80 1017.98 1017.99 1017.95 1017.97 1018.04 1018.20 1018.17 1018.09 1017.84
1004.47 1006.13 1006.42 1007.63 1008.42 1009.04 1008.14 1007.78 1006.63 1006.69 1006.50 1006.41 1007.70 1008.23 1008.80 1009.02 1009.32 1010.02 1010.72 1011.18 1012.13 1013.19 1014.47 1013.28 1013.54 1015.61 1016.74 1015.91 1016.10 1016.18 1016.46 1016.52 1016.51 1016.59 1017.14 1017.28 1017.59 1017.54 1017.80 1017.77 1017.69 1017.46 1017.77 1017.84 1017.86 1018.17 1018.07 1017.63 1017.24
1003.22 1004.42 1005.81 1007.50 1008.62 1008.92 1009.21 1009.54 1007.63 1007.49 1007.73 1006.67 1007.41 1008.45 1009.07 1009.20 1009.36 1009.89 1010.87 1011.66 1012.49 1013.25 1014.85 1014.95 1016.30 1016.86 1017.06 1016.42 1016.07 1016.05 1016.39 1016.92 1017.34 1017.97 1018.02 1018.02 1017.99 1017.89 1018.68 1018.52 1017.67 1017.85 1017.08 1017.42 1017.52 1017.60 1017.05 1016.59 1016.27
1004.10 1004.48 1005.96 1007.46 1008.91 1009.39 1009.97 1009.66 1009.24 1007.83 1008.49 1007.33 1007.66 1008.67 1009.08 1009.39 1009.49 1009.98 1011.04 1011.50 1012.58 1013.59 1013.93 1015.16 1016.10 1017.14 1017.28 1016.21 1016.41 1016.30 1016.92 1017.72 1017.67 1018.51 1018.43 1017.33 1018.35 1018.04 1019.30 1020.17 1018.40 1017.94 1017.75 1016.85 1016.81 1016.82 1016.70 1016.43 1016.16
1004.50 1005.98 1005.89 1007.43 1008.89 1010.41 1010.37 1010.72 1009.50 1008.52 1007.47 1008.15 1008.18 1009.02 1009.40 1009.55 1009.77 1010.50 1010.65 1011.39 1012.43 1013.37 1014.11 1014.99 1015.68 1015.55 1015.31 1015.83 1015.90 1015.99 1017.60 1017.87 1018.45 1018.51 1018.15 1018.64 1019.01 1019.47 1020.12 1019.44 1018.61 1016.92 1017.45 1016.79 1016.74 1016.58 1016.54 1016.64 1016.62
1003.89 1005.46 1006.75 1008.01 1009.51 1010.91 1011.42 1011.62 1011.10 1010.64 1010.00 1008.55 1008.93 1009.25 1009.65 1010.29 1009.91 1010.26 1010.70 1011.17 1011.92 1012.88 1014.06 1014.82 1015.47 1015.70 1015.74 1015.69 1015.77 1015.93 1016.49 1017.10 1017.08 1017.06 1016.90 1017.34 1018.61 1018.26 1019.11 1019.40 1019.04 1018.21 1017.35 1016.56 1016.29 1016.27 1016.49 1016.68 1016.48
1004.87 1004.84 1006.97 1009.16 1010.34 1011.85 1012.06 1012.96 1012.22 1012.16 1011.60 1009.71 1009.37 1009.73 1010.33 1011.14 1010.09 1010.39 1011.28 1010.99 1011.78 1012.54 1013.46 1014.50 1014.78 1015.34 1015.58 1015.42 1015.50 1016.01 1015.97 1016.10 1016.50 1016.04 1016.41 1017.08 1017.71 1018.22 1017.87 1017.89 1017.59 1016.74 1016.69 1016.45 1016.41 1016.55 1016.49 1016.33 1016.37
1004.46 1005.91 1008.18 1010.04 1010.77 1011.98 1012.61 1013.38 1013.71 1013.11 1012.60 1011.55 1010.21 1010.75 1011.04 1011.10 1011.02 1010.64 1010.72 1011.32 1011.96 1012.83 1013.29 1013.87 1014.33 1014.71 1015.20 1015.36 1015.81 1015.76 1015.84 1015.85 1015.78 1016.61 1016.76 1016.92 1017.16 1017.97 1017.93 1018.40 1018.44 1017.75 1017.42 1016.64 1016.42 1016.34 1016.63 1017.00 1016.83
1005.29 1007.05 1008.86 1009.67 1010.35 1011.09 1012.02 1012.84 1013.96 1013.46 1013.80 1013.03 1011.43 1011.06 1011.00 1011.97 1011.10 1010.99 1011.09 1011.61 1012.10 1012.98 1013.63 1014.08 1014.42 1014.93 1015.24 1015.59 1016.04 1015.98 1016.44 1015.99 1016.81 1017.67 1017.88 1017.10 1017.06 1018.13 1018.71 1019.46 1019.45 1019.39 1018.48 1017.27 1017.04 1017.02 1017.32 1017.36 1017.31
1004.82 1006.65 1007.72 1008.44 1009.30 1009.93 1011.10 1012.24 1012.86 1013.27 1013.96 1012.84 1012.44 1011.89 1011.35 1010.67 1010.93 1010.87 1011.38 1011.80 1012.26 1013.03 1013.91 1014.52 1015.07 1015.35 1015.75 1015.86 1016.15 1016.41 1016.41 1016.30 1017.22 1018.49 1018.42 1017.58 1017.53 1017.69 1018.31 1020.08 1019.70 1019.53 1019.44 1018.46 1018.26 1018.08 1017.52 1017.57 1017.33
1004.03 1005.34 1007.53 1006.89 1007.63 1008.07 1009.72 1011.14 1012.02 1012.94 1012.81 1012.45 1012.24 1012.00 1012.16 1012.72 1011.55 1011.25 1011.16 1011.75 1012.53 1013.19 1014.14 1015.05 1015.38 1015.62 1015.88 1016.05 1016.43 1016.62 1016.27 1016.36 1016.88 1017.01 1017.23 1017.50 1017.92 1018.17 1019.13 1020.72 1021.44 1021.76 1021.29 1019.25 1018.68 1018.81 1018.47 1017.51 1017.48
1002.00 1003.67 1005.32 1005.10 1005.51 1006.09 1008.09 1009.95 1011.23 1011.52 1011.67 1011.84 1011.73 1011.84 1012.65 1013.12 1013.16 1011.66 1011.59 1011.88 1012.43 1013.28 1013.83 1014.85 1015.42 1015.78 1015.98 1016.12 1016.31 1016.59 1016.66 1017.00 1017.55 1017.20 1017.13 1017.34 1017.82 1018.14 1018.16 1020.96 1022.27 1021.46 1021.66 1020.62 1019.14 1018.72 1018.74 1018.60 1017.64
1001.49 1002.64 1002.89 1003.25 1003.57 1004.76 1005.38 1007.39 1009.50 1010.27 1010.84 1010.78 1010.96 1011.28 1011.71 1013.22 1012.87 1011.83 1011.36 1011.22 1012.12 1013.10 1013.58 1014.56 1015.29 1015.84 1016.05 1016.32 1016.59 1016.52 1016.69 1016.76 1016.89 1016.82 1016.86 1017.41 1017.53 1017.66 1017.96 1019.07 1020.19 1019.68 1020.01 1020.03 1019.40 1018.59 1019.40 1019.86 1019.51
1001.06 1001.85 1002.36 1002.77 1002.76 1003.15 1003.84 1004.96 1006.65 1008.96 1009.51 1008.92 1009.47 1009.91 1011.10 1012.34 1013.11 1013.00 1012.36 1010.98 1011.75 1012.33 1013.33 1014.11 1015.13 1015.72 1015.98 1016.36 1016.73 1016.94 1016.57 1016.30 1016.32 1016.88 1017.20 1017.44 1017.70 1017.66 1017.70 1018.02 1019.98 1020.21 1020.55 1019.75 1017.61 1018.85 1019.65 1020.27 1019.36
1001.27 1001.46 1002.14 1002.26 1002.60 1002.94 1002.54 1003.78 1005.45 1007.19 1007.06 1007.40 1008.18 1009.46 1010.19 1010.89 1011.37 1012.27 1012.18 1011.41 1011.09 1011.93 1012.52 1013.51 1014.62 1015.32 1015.72 1016.15 1016.64 1016.81 1016.66 1016.79 1016.93 1016.76 1017.32 1017.34 1017.55 1017.84 1017.56 1017.48 1017.77 1018.33 1018.91 1019.16 1018.58 1018.59 1019.18 1019.66 1018.96
1001.74 1001.84 1001.82 1002.38 1003.29 1004.72 1003.22 1003.01 1003.52 1004.25 1004.81 1005.38 1006.75 1008.03 1009.27 1009.88 1010.51 1011.28 1010.89 1010.80 1010.71 1011.44 1012.12 1012.87 1014.05 1014.82 1015.44 1015.74 1016.10 1016.50 1017.24 1017.51 1017.58 1017.11 1017.42 1017.14 1016.99 1017.14 1017.81 1017.91 1018.23 1018.29 1018.76 1018.99 1018.75 1019.29 1019.19 1018.90 1018.28
1001.04 1001.59 1001.43 1003.35 1005.14 1007.13 1005.04 1003.53 1002.65 1002.29 1003.15 1004.53 1006.31 1007.16 1007.87 1008.39 1008.89 1009.56 1009.49 1009.96 1010.62 1011.37 1011.85 1012.22 1013.67 1014.40 1014.99 1015.34 1015.70 1016.23 1017.33 1017.42 1017.72 1016.86 1016.10 1016.56 1017.04 1016.95 1017.06 1017.65 1017.88 1018.23 1018.32 1018.36 1018.69 1019.00 1018.83 1018.66 1018.25
1001.00 1001.15 1001.64 1002.69 1005.26 1005.99 1004.76 1004.65 1003.28 1002.60 1003.43 1004.76 1005.89 1006.68 1007.29 1007.44 1007.69 1008.20 1008.64 1010.11 1011.31 1012.67 1011.46 1012.01 1012.89 1013.83 1014.45 1014.92 1015.34 1015.80 1016.78 1017.07 1017.18 1016.88 1016.16 1016.20 1016.58 1017.11 1017.79 1017.50 1017.77 1017.71 1017.90 1017.92 1018.01 1018.25 1018.15 1018.08 1018.33
1001.04 1002.12 1002.33 1002.52 1005.34 1005.72 1005.95 1005.98 1007.28 1005.17 1004.67 1005.42 1006.03 1006.29 1006.91 1007.04 1006.66 1007.29 1007.92 1009.83 1011.15 1011.21 1010.94 1011.62 1012.30 1013.22 1013.89 1014.35 1014.93 1015.34 1015.65 1016.12 1016.32 1016.41 1016.38 1016.31 1016.59 1017.32 1017.64 1017.43 1017.42 1017.61 1017.65 1017.54 1017.77 1017.85 1017.92 1017.97 1018.18
1000.73 1001.83 1003.01 1004.21 1007.08 1006.68 1006.69 1007.53 1008.04 1007.82 1007.56 1005.45 1005.79 1006.07 1005.90 1006.21 1006.23 1006.65 1007.48 1008.66 1009.37 1010.67 1011.00 1010.69 1011.62 1012.49 1013.19 1013.72 1014.37 1014.69 1015.16 1015.60 1015.85 1016.16 1016.37 1016.51 1016.63 1016.83 1017.08 1017.28 1017.46 1017.45 1017.49 1017.61 1017.80 1017.97 1017.93 1018.05 1018.06
1001.37 1002.12 1002.75 1003.86 1007.75 1008.47 1007.75 1007.96 1007.77 1008.65 1006.95 1005.56 1005.00 1005.59 1005.44 1006.33 1006.54 1006.35 1007.05 1008.07 1008.91 1009.42 1009.39 1009.86 1010.85 1011.66 1012.33 1012.90 1013.58 1014.18 1014.85 1015.21 1015.56 1015.88 1016.08 1016.37 1016.53 1016.64 1016.83 1017.15 1017.25 1017.40 1017.43 1017.70 1017.89 1018.02 1017.84 1017.85 1017.86
Wind_Speed
9 11 10 7 3 5 11 6 15 14 15 20 22 16 17 8 7 15 14 10 20 17 14 14 15 14 16 15 13 13 13 14 13 14 14 14 14 14 13 15 16 15 15 14 14 12 13 11 9
9 12 2 3 5 3 7 22 16 12 17 26 24 21 23 25 24 23 20 24 11 18 15 14 14 15 17 15 14 14 14 13 13 14 15 15 14 15 15 16 17 17 18 19 18 14 13 9 8
12 5 1 4 6 5 11 20 19 24 16 23 13 21 17 20 22 23 29 30 7 10 16 14 15 15 17 16 15 15 14 13 15 15 16 17 17 17 17 18 18 18 18 17 18 18 13 8 6
5 3 3 7 14 16 9 13 18 15 21 17 19 15 20 19 21 26 32 34 24 19 17 14 16 17 17 16 15 15 14 14 14 15 15 16 16 17 16 17 17 17 17 16 15 14 12 8 6
7 2 4 4 16 18 11 19 16 16 11 14 20 18 21 19 20 25 25 15 22 19 16 15 15 16 17 16 15 15 14 13 14 14 16 14 16 17 16 15 16 17 17 16 14 14 13 10 6
2 3 2 8 10 14 11 13 23 13 23 17 20 20 17 16 23 21 22 18 16 20 18 14 16 16 16 16 15 15 15 14 13 13 14 13 14 15 14 14 16 17 15 16 14 14 12 9 5
12 5 4 4 5 8 5 19 14 13 17 20 20 20 13 15 21 21 18 19 11 5 18 13 14 14 14 15 15 15 14 14 13 13 14 13 13 14 14 13 13 14 15 14 13 13 11 9 5
10 9 4 2 2 6 8 14 7 4 14 24 21 13 12 15 22 21 26 15 16 10 14 14 11 12 12 11 14 16 14 13 14 13 15 15 14 14 14 10 10 11 12 12 11 12 11 11 8
7 6 4 5 1 1 8 7 12 15 5 13 12 19 15 16 18 22 7 22 12 15 17 16 14 9 12 10 10 13 14 13 13 11 11 10 7 9 10 9 8 10 10 10 11 11 11 13 12
9 7 8 9 12 9 11 5 9 10 9 17 22 21 18 16 14 17 14 16 10 8 12 11 16 17 11 9 11 9 9 7 8 9 7 3 5 5 8 7 5 6 8 9 11 11 13 11 5
12 8 17 11 11 1 10 10 7 4 10 16 21 20 16 14 11 15 11 11 15 15 11 10 7 22 14 4 8 5 4 3 3 4 9 5 4 3 4 3 2 4 8 4 7 7 7 10 7
4 10 12 13 9 3 4 11 15 9 3 19 22 19 16 13 12 14 14 13 9 12 18 12 17 8 13 6 3 4 5 4 3 11 11 5 6 3 7 6 7 5 4 7 6 6 9 8 6
19 12 18 13 13 7 5 10 9 14 15 12 21 18 16 9 13 13 13 15 13 8 12 17 21 16 17 5 5 2 13 9 6 6 12 9 3 3 4 8 7 4 3 3 4 4 3 4 3
9 20 19 18 15 9 6 6 8 7 9 16 19 17 14 10 14 9 15 14 12 11 9 14 13 6 3 1 2 4 11 10 9 9 13 10 6 5 9 4 10 3 3 2 4 3 3 4 3
8 16 13 16 12 8 6 4 5 15 20 15 18 15 12 8 11 12 14 13 12 11 11 11 13 8 4 3 2 2 8 5 2 4 5 6 10 4 12 5 4 8 8 4 2 3 4 4 5
12 15 10 8 13 4 3 2 13 15 18 5 16 9 14 5 9 8 11 12 13 10 11 10 10 14 8 3 1 3 3 4 5 4 4 7 7 8 3 6 10 5 3 4 4 4 4 5 5
8 5 7 1 3 7 1 7 12 14 16 18 12 17 11 8 5 4 10 10 12 9 11 7 6 10 7 4 4 3 3 1 1 9 4 6 3 14 7 2 9 10 7 3 4 1 2 2 4
4 6 9 5 12 9 11 12 11 13 10 13 4 13 12 15 13 13 12 10 15 11 9 6 4 9 4 3 1 1 4 4 6 10 6 1 3 14 0 5 10 8 8 3 4 4 4 2 3
13 12 11 11 14 18 10 11 16 19 13 11 9 1 13 15 3 8 15 11 15 12 8 6 9 8 5 3 1 3 3 4 4 9 11 3 4 4 3 8 4 8 10 7 4 3 2 3 3
15 17 10 12 18 12 13 10 11 13 11 12 13 7 6 10 14 12 15 14 16 14 11 8 8 8 5 4 2 2 1 2 3 3 5 3 2 1 10 17 7 4 10 11 1 4 4 2 4
9 12 16 6 14 8 15 9 11 11 10 14 14 10 4 4 11 10 20 14 17 15 15 12 9 7 6 4 5 2 2 4 4 2 4 4 4 3 3 15 12 3 4 5 10 4 5 2 2
14 11 10 14 9 5 12 2 17 15 15 17 20 13 8 2 11 14 7 18 17 15 14 14 12 9 7 4 2 4 1 2 6 4 4 5 3 2 4 13 10 4 7 5 8 6 7 7 6
4 2 6 12 10 10 12 11 11 17 16 21 21 18 14 9 20 11 16 15 21 18 16 15 14 12 10 5 3 4 5 5 1 4 7 2 5 2 4 5 17 7 2 3 10 11 6 5 4
11 7 7 12 10 11 14 10 14 15 24 23 18 18 19 20 21 14 16 18 19 16 16 15 16 12 8 8 7 8 6 3 4 5 6 5 5 5 3 3 3 7 6 8 3 6 7 1 1
9 13 11 8 5 12 7 8 8 24 19 22 19 18 21 18 16 18 23 22 20 18 16 15 16 14 10 9 9 9 5 5 7 6 8 6 6 7 9 5 5 2 5 4 1 4 5 5 3
12 16 13 6 2 4 28 7 4 3 17 13 19 20 19 21 17 16 10 6 10 16 17 17 18 14 13 11 10 6 7 7 9 6 2 2 2 2 9 6 6 5 5 4 5 3 5 3 3
7 12 14 8 9 7 10 6 11 10 20 18 20 22 18 21 23 13 11 15 17 18 18 18 17 15 15 11 8 7 8 7 5 4 3 3 1 7 2 8 6 4 4 2 3 3 4 2 1
14 6 10 8 2 8 4 5 6 6 18 13 13 11 9 18 18 16 15 20 13 8 15 19 19 17 15 14 11 9 8 7 5 2 2 5 1 5 6 1 3 5 4 4 3 4 4 3 2
7 8 5 4 5 10 2 2 3 16 16 18 19 15 17 19 19 14 17 18 16 18 19 16 17 16 15 14 15 11 10 9 6 5 4 5 4 2 2 4 4 4 3 4 1 3 5 5 2
3 8 13 7 8 7 9 0 6 15 27 16 10 4 1 4 8 11 16 19 17 20 16 16 18 16 15 14 12 11 12 11 11 8 7 7 6 5 3 4 3 5 4 4 4 5 7 5 5
Wind_Direction
253 238 234 263 250 218 63 132 108 98 81 69 49 70 84 140 102 106 168 222 114 114 124 122 119 115 101 100 96 92 96 95 97 94 96 97 101 103 101 101 99 96 90 97 104 105 108 103 104
244 293 317 303 321 242 164 78 43 74 90 68 13 77 81 88 97 122 149 81 55 127 120 114 116 115 112 118 120 108 101 98 94 93 94 96 95 98 98 102 100 101 98 100 106 101 104 103 108
251 68 116 62 290 292 91 120 182 57 329 82 103 93 104 104 104 103 91 85 61 83 106 122 121 121 118 117 107 104 99 99 96 96 102 103 105 105 102 101 105 104 102 104 107 111 109 104 113
232 39 91 76 243 271 109 108 95 122 88 85 97 70 87 108 110 109 129 137 164 115 113 124 124 117 114 113 108 105 102 100 98 98 104 107 106 103 107 109 107 110 110 113 105 106 115 130 133
349 194 73 99 251 253 102 94 93 91 86 91 100 100 93 103 118 98 93 100 109 112 125 123 120 117 117 117 112 107 102 102 104 108 111 116 113 114 111 111 109 115 116 110 120 119 118 122 108
183 56 283 172 234 101 98 101 62 24 115 115 104 100 105 133 116 121 121 140 110 123 121 124 125 123 121 119 113 113 113 111 116 115 114 117 121 123 123 118 114 116 116 114 114 117 116 116 99
215 45 213 173 2 66 62 71 109 201 101 112 112 117 136 135 123 118 94 90 135 115 123 130 131 125 124 118 118 117 119 128 127 129 130 131 132 131 131 127 120 125 122 122 124 119 122 124 116
56 145 192 92 322 155 44 86 256 45 120 116 128 133 136 143 116 120 125 148 132 127 123 114 135 141 135 131 130 128 135 138 145 146 147 145 142 138 136 130 127 124 121 120 124 133 137 133 169
101 352 329 140 123 90 91 40 103 154 163 124 104 143 139 148 139 111 43 127 156 135 134 136 148 162 114 133 142 143 153 156 154 154 159 159 144 152 159 115 139 140 147 146 141 149 159 164 186
95 186 200 157 146 293 67 130 117 146 157 137 122 124 138 164 149 129 142 126 132 128 134 129 154 139 149 141 163 161 162 176 184 167 164 191 185 142 144 149 161 176 183 177 161 162 184 182 195
152 129 95 141 127 81 46 320 124 212 151 117 127 140 154 164 152 131 174 122 137 146 123 78 63 62 313 202 181 168 187 116 61 79 161 142 119 129 122 117 343 206 219 219 187 182 203 206 227
113 90 129 129 125 40 22 331 37 75 342 138 134 140 164 172 158 144 109 110 107 108 134 128 97 75 230 249 19 155 114 102 108 42 30 40 360 2 47 60 300 289 232 229 211 200 205 207 157
47 97 106 112 148 133 83 354 333 115 170 140 134 144 178 177 152 133 141 139 127 148 117 126 117 191 218 193 195 280 80 323 84 99 72 293 213 157 234 75 245 226 303 177 114 170 192 96 82
138 246 120 134 133 59 78 6 318 6 120 124 138 156 175 188 144 159 129 138 136 168 133 119 126 180 99 47 99 120 123 200 150 163 163 199 146 80 108 273 279 2 296 217 156 166 167 123 92
185 107 118 120 124 96 84 359 339 341 339 140 149 163 163 235 149 149 151 142 151 156 151 125 138 152 123 148 194 73 136 145 181 155 124 115 112 119 122 194 250 263 225 98 184 181 168 155 134
280 163 124 105 108 104 77 78 295 339 339 201 159 120 116 237 139 166 179 145 141 136 139 151 188 149 161 168 264 360 142 159 179 160 150 101 100 117 202 260 240 150 174 189 209 235 192 162 162
318 60 99 97 226 117 265 146 242 319 336 308 146 148 196 24 264 144 138 147 142 128 134 162 147 129 133 183 33 64 40 316 322 40 15 78 101 61 16 298 24 355 337 193 229 112 53 109 122
122 9 49 126 166 153 174 166 149 278 276 294 336 265 141 187 173 157 168 144 134 147 137 111 135 119 124 154 244 35 115 271 79 48 307 206 80 124 357 37 30 3 345 330 23 9 49 323 45
129 130 148 148 157 144 139 154 199 197 232 280 288 250 230 178 153 195 141 164 137 136 116 128 114 132 129 167 164 332 249 223 108 149 225 97 84 12 12 49 27 28 326 323 22 297 49 330 35
155 115 308 171 168 195 165 166 195 198 218 240 263 299 302 347 177 231 158 154 151 142 133 111 131 154 176 214 184 245 253 319 69 148 120 141 128 39 96 105 27 52 302 280 279 301 317 86 83
215 145 189 157 186 132 147 144 183 230 243 201 232 256 238 319 279 259 165 158 156 156 145 147 148 185 213 278 125 72 347 76 13 227 152 127 161 186 71 122 128 168 289 328 314 5 352 334 96
267 177 171 188 189 187 232 217 192 206 226 218 207 194 234 121 284 250 209 172 159 160 160 152 153 174 223 251 290 151 188 250 173 193 163 138 161 223 146 112 96 86 266 339 297 13 351 25 349
269 333 276 296 294 270 205 267 167 179 216 227 216 199 184 199 219 266 273 163 162 161 167 162 167 165 203 189 230 206 212 219 246 123 113 112 124 282 291 122 142 168 168 226 57 291 29 91 258
296 279 283 264 259 259 253 237 156 179 217 220 225 207 188 191 228 187 245 260 162 169 159 172 158 168 191 168 195 247 249 183 292 147 143 183 163 178 221 158 106 108 104 294 51 341 323 323 45
249 258 249 228 320 325 347 237 127 200 211 212 190 205 204 202 224 201 206 224 164 167 171 163 160 166 173 196 191 216 214 13 319 137 214 202 188 184 166 172 155 183 191 226 138 291 287 293 29
203 245 258 174 193 273 290 4 83 146 171 161 168 186 191 197 227 224 152 160 64 174 175 159 162 167 175 189 198 221 147 113 263 261 278 258 43 338 148 163 162 190 228 184 215 241 260 43 30
334 242 308 298 85 226 262 74 271 105 143 151 167 185 197 195 210 202 181 147 151 251 173 162 160 167 175 196 184 205 183 212 240 253 253 282 330 82 278 169 176 184 206 259 323 257 282 356 94
279 14 299 311 68 249 61 102 326 354 134 144 163 159 198 229 230 179 180 167 175 224 162 161 161 168 175 191 185 203 204 215 221 191 263 278 42 149 184 143 186 181 212 226 281 295 354 306 345
223 221 233 87 71 305 352 103 328 306 301 166 165 170 200 222 216 204 179 166 168 178 226 164 161 167 178 193 183 191 194 201 220 208 196 260 292 261 100 164 255 286 218 223 214 301 299 281 280
109 289 292 272 101 293 325 57 84 248 256 147 99 67 324 90 214 243 195 173 186 192 172 166 164 168 183 190 180 186 193 193 199 210 221 209 229 238 201 230 272 279 267 274 218 247 280 299 253